Tracking 34138 objects as of 15-May-2026
HD Live streaming from Space Station
objects crossing your sky now

STARLINK-36891

Track STARLINK-36891 now!
10-day predictions
STARLINK-36891 is classified as:


NORAD ID: 68024
Int'l Code: 2026-040K
Perigee: 471.9 km
Apogee: 473.4 km
Inclination: 97.3 °
Period: 93.9 minutes
Semi major axis: 6843 km
RCS: Unknown
Launch date: March 1, 2026
Source: United States (US)
Launch site: AIR FORCE WESTERN TEST RANGE (AFWTR)
Your satellite tracking list
Your tracking list is empty




NASA's NSSDC Master Catalog

Two Line Element Set (TLE):
1 68024U 26040K   26134.60298990  .00013346  00000-0  41489-3 0  9997
2 68024  97.2876  83.7538 0001151  84.5181 275.6193 15.33453075 11562
Source of the keplerian elements: AFSPC